Location: Newark
(27.9675°N, 86.8869°E)
Time: 18:44:42
(UTC+00:00)

SR - Pass Details

Date: 23 October 2019
Orbit: 574 x 882 km, 66.7° (Epoch: 11 November)

Event Time Altitude Azimuth Distance (km) Brightness Sun altitude
Rises 14:06:01 0° 179° (S) 2,923 - -33.7°
Reaches altitude 10° 14:08:25 10° 168° (SSE) 2,063 - -34.3°
Maximum altitude 14:12:31 30° 107° (ESE) 1,227 - -35.2°
Drops below altitude 10° 14:16:57 10° 47° (NE) 2,248 - -36.1°
Sets 14:19:40 0° 37° (NE) 3,232 - -36.7°
